Theta_e
313 313 313 313 314 313 314 313 313 314 314 313 314 314 314 313 314 314 313 313 313 314 314 314 314 314 314 314 314 314 316 304 300 298 299 303 312 319 321 324 325 326 325 313 312 305 303 303 304 305 302 305 306 306 309 308 304 304 298 292 290 291 292 296 298 300 302 301 300 300 300 298 298 297 300 300 299 299 302 306 306 310 310 311 311 312 317 321
313 313 313 313 313 313 313 313 313 313 313 314 313 313 313 313 313 313 313 314 314 313 313 313 313 314 314 314 315 315 311 301 297 298 301 312 320 320 321 322 323 322 320 307 305 303 301 301 302 300 300 301 308 305 309 306 307 300 293 292 292 293 297 302 301 303 301 301 302 303 300 301 301 298 299 299 296 300 301 302 303 307 307 313 314 318 320 321
313 313 313 313 313 313 313 313 313 313 313 313 313 313 313 313 313 313 313 313 313 313 313 313 313 313 314 314 314 315 305 297 297 299 301 317 319 319 320 322 321 321 308 305 304 304 303 301 301 299 298 300 303 301 309 309 305 300 295 293 294 296 299 302 302 302 302 302 302 301 302 300 301 298 300 298 295 296 298 297 300 303 305 308 313 316 319 320
311 312 312 312 312 313 313 313 313 313 313 313 312 313 313 313 313 313 313 313 313 313 313 313 313 313 313 314 314 308 299 293 297 302 306 317 318 319 318 320 319 315 305 308 306 304 303 299 298 300 298 298 299 304 302 305 304 305 297 292 295 296 298 300 302 302 300 301 301 301 299 299 303 303 298 295 297 296 296 297 301 302 305 310 314 317 318 319
311 311 311 311 312 312 312 312 312 312 312 312 312 312 312 312 313 312 312 313 313 313 313 313 313 312 313 313 314 301 295 281 297 303 308 317 318 318 318 317 317 309 306 306 305 302 299 299 298 297 297 294 297 300 299 302 304 300 300 298 295 298 298 301 302 301 301 299 301 297 298 299 302 300 295 297 298 295 297 300 299 301 303 315 315 317 317 318
311 310 310 311 311 311 312 312 312 312 312 312 312 312 312 313 313 312 313 313 313 313 313 312 312 312 313 313 302 296 288 274 301 299 314 316 317 317 316 315 315 309 305 304 303 300 300 299 295 293 291 294 294 296 296 299 302 296 297 298 298 298 298 300 300 297 298 299 300 298 298 300 298 298 298 298 299 301 299 301 301 300 308 316 317 318 318 318
311 310 311 311 310 311 311 312 312 312 312 312 312 312 313 313 313 313 313 313 313 313 312 312 312 312 312 312 297 295 289 290 298 305 312 315 316 314 315 312 311 304 304 302 302 300 297 299 294 292 290 291 290 293 297 297 300 298 294 294 297 299 299 299 301 299 296 296 296 296 299 299 298 297 298 297 299 303 304 304 301 299 316 318 317 318 319 319
311 311 311 310 310 310 311 311 312 312 312 312 312 312 312 313 313 313 313 313 313 313 312 312 312 312 312 296 294 288 286 287 296 305 311 313 309 307 309 303 303 302 301 300 300 299 297 297 296 293 289 289 292 297 298 293 294 294 293 295 297 298 299 301 300 299 296 295 295 298 298 297 297 298 300 300 303 305 306 309 313 316 316 315 316 317 318 319
311 311 311 310 310 311 310 311 311 312 312 312 312 312 312 313 313 312 313 313 313 313 312 312 311 312 310 295 289 284 284 294 298 304 305 303 305 304 303 301 302 301 300 299 300 300 299 295 295 298 292 288 295 297 296 293 289 295 294 296 295 296 298 299 301 298 298 297 297 299 295 295 296 300 299 303 305 304 307 316 318 316 316 316 316 317 317 318
311 311 310 310 310 310 311 311 311 311 311 312 312 312 312 313 312 313 313 313 313 313 313 312 312 312 302 295 288 284 292 299 301 302 303 304 305 304 304 301 300 301 299 298 300 300 297 296 298 300 298 295 296 296 296 294 292 298 295 295 295 297 296 300 300 301 299 300 297 298 295 295 297 298 294 297 300 302 307 312 315 317 316 316 316 315 316 317
310 310 310 310 310 310 310 311 311 311 312 312 312 312 312 312 312 313 313 314 313 313 313 312 313 309 296 293 287 284 297 299 300 302 302 305 304 302 301 300 299 299 300 301 299 300 300 299 299 301 297 294 295 292 295 298 299 296 296 295 292 292 294 297 298 298 300 301 297 299 297 296 295 297 295 299 301 302 302 309 312 314 317 318 316 316 317 318
311 310 310 310 310 310 310 310 311 311 312 312 312 312 312 312 313 313 313 314 314 313 312 312 312 300 295 292 290 290 298 300 301 301 303 303 302 301 301 301 299 300 302 299 299 300 300 299 301 297 291 300 291 293 292 297 298 297 294 292 292 290 294 293 296 299 300 300 298 297 296 294 294 293 296 300 301 300 300 301 307 310 312 317 318 318 317 319
311 310 310 310 310 310 310 309 311 311 312 312 312 312 312 312 313 313 313 314 315 313 312 312 308 298 294 287 290 298 299 301 301 302 302 301 301 302 302 303 302 301 300 300 300 301 299 300 300 297 298 298 295 287 292 295 294 297 292 291 290 287 290 293 294 296 299 299 298 298 290 293 294 294 297 299 300 300 301 300 299 306 308 310 315 318 319 319
310 309 309 310 310 309 310 310 311 311 311 311 312 312 312 312 313 313 314 314 315 313 313 311 301 295 291 287 294 299 301 304 301 299 299 302 299 300 301 304 304 300 301 300 299 298 299 300 301 298 301 297 293 299 295 290 291 290 290 287 285 286 286 291 292 293 297 300 301 301 290 292 292 294 297 298 298 300 299 299 300 299 302 305 309 315 318 319
310 309 309 310 310 309 310 309 311 311 312 312 312 312 312 312 313 313 314 314 313 313 312 310 297 294 288 289 296 300 311 301 298 298 300 299 297 298 299 301 302 301 301 300 299 301 301 300 297 293 292 296 296 292 287 283 284 283 284 279 280 284 284 289 292 293 292 295 297 299 291 293 295 297 298 298 297 298 297 298 299 299 299 299 302 307 311 316
309 310 310 310 309 309 309 310 310 311 311 312 312 312 312 312 312 313 314 312 311 312 300 298 296 292 285 285 292 306 296 294 295 299 298 299 298 296 297 298 298 301 300 299 301 301 298 299 293 293 295 293 287 281 280 280 280 281 281 280 280 280 279 285 289 291 293 293 294 295 290 290 290 293 296 297 298 297 296 296 296 297 298 298 299 301 304 306
309 309 309 309 309 309 309 310 310 311 311 311 312 311 312 312 312 311 313 309 304 303 298 296 295 295 285 292 298 294 292 295 297 296 298 299 299 297 298 296 295 297 297 298 298 299 297 294 293 290 288 290 289 285 281 276 279 277 278 281 281 282 281 280 286 289 292 293 290 290 288 288 290 293 295 297 297 296 295 296 297 297 297 297 297 299 300 302
309 309 309 309 309 309 309 310 310 311 311 311 311 310 308 311 309 313 308 301 298 299 299 297 296 289 285 293 288 290 295 292 296 296 296 298 299 298 297 294 294 293 292 295 295 293 293 290 287 284 284 285 287 283 276 275 278 280 278 279 280 279 281 283 282 286 290 289 289 288 288 286 289 291 293 295 297 295 294 296 296 296 296 297 296 297 298 300
309 309 309 309 309 309 310 310 311 311 310 311 309 310 308 307 295 294 295 294 291 287 284 288 289 280 278 289 292 293 294 297 296 294 295 296 297 297 296 297 292 291 289 287 290 291 290 286 285 281 279 281 284 285 280 283 282 284 285 282 283 281 279 284 286 288 289 288 287 286 286 287 288 290 292 295 297 295 295 294 296 297 297 297 296 296 296 298
309 309 309 308 309 309 310 310 310 310 310 304 297 293 294 292 288 284 293 292 288 288 288 290 289 289 289 290 291 296 299 295 292 294 295 297 297 295 293 292 290 290 284 282 287 289 288 281 279 279 282 282 282 286 289 285 288 287 286 283 282 281 281 282 285 289 288 287 284 285 286 286 287 288 291 293 295 295 295 295 296 297 297 297 297 298 298 298
309 309 308 309 309 309 311 310 309 309 308 298 296 295 289 290 281 280 288 289 288 287 289 290 290 289 289 292 292 293 290 291 292 293 294 299 295 293 290 289 286 284 282 284 287 291 288 282 281 280 283 283 284 285 285 287 288 287 284 281 280 281 282 284 287 288 289 287 283 286 286 286 286 288 290 292 292 294 294 294 296 296 297 298 297 297 298 298
309 309 308 308 309 310 310 310 309 308 306 299 298 294 295 295 297 295 292 285 290 289 287 288 289 289 291 290 292 293 290 286 291 293 296 298 292 290 289 288 285 283 283 281 281 281 281 280 282 283 285 284 283 282 283 284 283 283 283 281 279 279 281 283 284 285 287 287 284 282 284 286 288 289 290 290 291 292 293 294 294 295 296 298 298 298 298 299
309 309 309 309 308 309 310 309 309 306 295 296 294 296 295 298 298 296 295 290 286 288 286 287 288 287 289 292 292 293 287 284 284 291 293 295 291 288 287 285 284 284 284 281 279 278 279 282 285 285 285 284 282 281 281 281 281 280 280 280 280 279 280 278 282 284 286 286 283 285 283 285 284 285 286 288 289 290 293 293 293 295 296 296 298 298 298 298
308 309 308 308 308 309 310 309 306 299 293 292 295 295 299 298 297 296 291 280 278 284 285 287 289 287 287 288 293 291 286 286 286 288 295 293 288 288 285 285 284 285 283 281 279 280 281 286 287 283 284 284 282 281 282 281 281 279 280 280 279 280 281 281 282 283 284 284 285 284 283 281 281 285 287 289 288 290 292 294 294 294 296 296 296 296 297 298
308 308 308 308 308 310 308 309 295 292 293 289 289 295 296 295 294 295 287 279 277 279 288 289 291 288 291 295 293 290 288 287 288 290 291 293 291 284 284 287 283 281 282 282 281 281 282 286 285 282 282 282 282 283 281 280 279 279 281 283 282 281 281 281 280 283 279 277 283 283 277 275 279 284 285 287 288 290 290 291 293 294 295 295 296 296 297 298
308 308 307 307 308 309 308 294 290 292 289 290 292 297 298 296 295 290 278 264 266 277 285 282 292 286 296 289 291 289 287 284 290 292 295 296 296 288 283 282 284 281 282 283 283 284 285 285 283 282 282 282 282 282 283 282 279 276 280 283 283 281 281 280 280 279 274 276 282 282 275 272 279 284 285 285 286 288 290 290 292 293 294 295 295 296 296 297
308 307 307 307 307 308 291 287 291 290 287 289 293 297 297 297 296 293 282 261 265 278 278 287 288 287 292 288 288 287 275 280 291 291 291 295 291 293 284 281 281 282 285 284 281 281 286 284 283 282 281 281 280 282 284 282 279 280 285 283 284 282 283 283 280 278 277 279 281 281 280 277 276 281 282 284 284 286 289 290 292 293 294 294 295 296 296 297
308 307 307 307 307 304 292 291 290 289 290 294 297 297 298 295 291 284 267 257 260 280 276 282 287 294 290 289 288 285 284 286 281 288 292 292 291 288 286 282 281 281 282 281 276 286 285 283 283 282 280 280 281 283 284 284 283 283 288 287 284 284 284 283 282 280 281 279 276 280 280 275 273 279 283 283 284 285 287 289 290 292 293 294 295 295 296 297
308 306 307 307 306 304 295 291 291 293 295 296 296 296 296 288 282 275 260 258 269 274 292 281 295 288 287 288 285 284 283 286 281 286 291 292 293 289 283 283 281 280 281 283 280 284 287 288 287 284 280 280 282 282 282 285 282 284 286 287 284 286 285 284 281 280 278 273 270 278 279 274 275 279 280 280 281 284 286 288 290 291 292 292 293 294 295 296
308 306 307 306 300 295 293 291 292 296 296 296 296 294 290 285 276 263 259 257 274 268 282 283 284 281 283 281 281 284 282 282 285 286 287 285 289 290 286 288 282 279 281 282 283 283 283 286 290 288 285 286 284 284 282 284 284 284 283 286 285 281 280 281 280 279 274 266 271 279 279 279 273 278 279 282 283 285 286 288 290 291 291 292 292 293 294 294
308 306 306 305 293 293 291 290 294 295 297 294 292 286 283 275 266 259 257 266 277 272 281 280 280 283 279 278 276 282 281 281 282 283 283 286 285 287 286 282 283 278 278 279 280 281 282 282 282 283 287 288 288 285 284 283 282 282 281 281 280 279 281 277 275 275 267 266 274 277 279 279 269 278 281 281 284 286 286 286 287 288 290 290 291 292 293 294
308 306 306 300 298 293 293 291 297 298 296 294 285 280 277 263 272 268 265 281 266 275 274 277 280 278 279 278 278 278 278 280 280 280 279 279 280 281 281 277 278 270 271 274 274 278 279 279 280 281 285 285 282 283 285 284 285 281 277 278 270 269 272 267 269 268 263 264 274 277 278 275 276 278 283 286 287 287 287 286 287 287 288 289 290 291 292 293
308 306 305 301 299 290 293 296 297 296 294 289 282 277 269 263 259 263 268 268 267 275 275 281 278 278 277 276 276 279 279 276 280 281 279 280 279 280 281 281 281 277 267 276 275 273 274 276 280 282 281 284 283 279 279 280 283 281 279 274 265 264 265 264 264 262 261 269 274 276 276 274 277 279 283 285 287 287 286 287 287 287 288 288 289 290 291 292
308 304 294 297 295 295 296 294 296 294 289 286 279 278 274 266 263 277 266 263 270 276 277 277 279 277 277 275 276 278 274 277 278 278 280 276 279 276 280 282 282 280 276 276 273 272 265 268 276 279 279 282 281 280 280 280 281 281 281 277 273 269 264 260 260 258 259 265 272 275 268 266 272 280 285 287 286 286 286 286 287 288 288 289 289 290 291 291
307 295 290 289 291 293 294 295 294 291 286 285 280 272 266 262 266 269 269 272 272 274 277 278 273 274 274 275 276 278 278 273 278 276 277 278 275 275 276 279 282 281 279 270 275 268 272 271 278 281 281 280 280 281 282 281 277 278 282 282 275 271 277 268 269 267 268 270 272 271 270 271 278 283 284 284 284 286 287 288 288 287 288 288 289 289 290 291
301 292 289 287 292 294 295 295 292 286 285 283 278 272 267 269 272 276 276 282 279 276 278 275 273 269 267 271 273 276 279 275 278 271 270 275 278 276 279 279 280 281 279 276 277 273 273 272 278 279 280 281 280 282 283 283 272 280 279 274 280 283 281 275 275 276 277 271 267 273 274 278 280 281 283 283 284 285 286 286 286 286 287 288 288 289 289 290
287 289 288 289 290 294 295 294 289 286 285 280 275 269 271 272 279 279 281 278 279 279 270 267 269 270 265 265 267 275 277 275 275 271 267 274 270 279 277 278 281 281 280 279 275 281 274 273 277 277 278 280 281 281 281 282 283 277 275 278 281 280 276 274 269 269 265 263 265 271 270 274 275 271 282 284 282 284 284 284 285 286 286 287 288 288 289 290
288 289 292 289 290 293 294 290 287 285 282 281 275 276 273 277 279 279 278 279 280 276 270 270 269 275 269 267 268 275 277 272 275 266 260 274 268 281 278 278 282 281 282 280 276 276 276 267 272 277 278 279 280 280 279 281 282 282 279 281 276 271 274 278 270 265 266 264 264 271 273 274 276 277 279 280 279 281 282 284 284 285 286 286 287 288 289 290
284 282 282 288 291 292 292 288 287 282 278 274 266 277 275 274 276 275 275 280 280 277 272 273 269 273 275 272 272 274 274 270 274 268 261 269 264 278 279 279 279 282 281 278 277 279 276 266 270 275 277 279 278 277 268 275 280 279 280 279 276 275 273 271 271 272 269 263 266 267 271 269 276 277 279 279 280 281 281 283 283 285 286 286 287 288 289 289
285 281 277 287 290 292 290 290 286 280 276 273 271 271 268 268 276 278 278 280 277 275 274 275 272 270 271 274 274 270 274 274 273 270 270 274 274 280 279 281 279 280 281 279 280 280 273 273 263 275 279 276 272 276 274 275 275 277 277 275 277 274 275 274 268 268 270 268 265 264 262 268 275 277 280 279 280 281 282 282 284 285 286 287 287 288 289 289
280 276 275 286 290 290 288 286 278 271 270 270 272 271 270 276 280 280 278 278 278 277 279 278 277 271 273 272 272 273 273 273 273 271 272 272 276 271 279 279 280 279 280 277 279 277 265 267 267 272 272 273 274 278 278 277 278 277 276 274 276 274 269 263 262 272 270 265 263 262 264 271 277 281 281 280 281 282 283 282 284 285 286 287 288 288 289 289
278 270 277 289 289 288 284 279 271 264 268 269 272 271 276 286 275 278 278 279 280 279 275 278 277 276 273 272 276 273 271 269 270 269 272 273 278 277 280 279 280 280 278 276 278 279 278 274 269 265 268 271 276 278 277 277 278 279 278 276 275 273 269 262 261 262 266 269 270 265 264 268 277 279 280 281 281 282 283 283 284 285 286 287 288 289 289 289
276 273 286 286 288 285 279 267 273 274 270 273 273 277 277 278 277 276 277 278 278 279 275 275 276 277 278 278 275 271 274 270 272 272 274 275 276 280 279 281 281 282 279 277 277 279 283 266 266 267 267 271 274 272 274 272 276 276 277 278 277 274 274 270 269 273 270 268 262 261 264 271 279 279 281 281 281 282 284 284 284 285 286 287 288 289 289 288
276 277 283 287 287 283 274 267 268 270 272 270 272 274 275 278 276 278 276 274 279 278 276 278 279 279 280 279 278 276 277 268 274 276 272 276 277 279 278 282 282 281 281 280 277 277 268 267 267 259 257 263 266 268 270 270 275 272 276 276 277 277 276 274 270 270 271 271 270 263 262 265 276 280 281 282 283 284 285 285 285 285 286 287 288 289 289 289
279 276 276 281 287 283 273 266 269 266 271 270 273 274 273 275 278 280 280 277 277 277 275 278 280 281 279 278 279 279 280 277 270 275 277 276 279 278 281 282 281 280 282 286 288 280 273 270 267 261 257 256 258 259 264 270 273 276 276 276 277 277 275 271 264 270 269 272 268 261 263 274 278 280 280 282 283 284 285 285 286 286 286 287 288 288 288 288
274 270 273 276 279 280 276 274 271 271 267 268 270 272 274 273 280 278 279 278 279 278 278 278 278 280 277 276 275 275 277 278 273 271 276 277 280 280 281 281 280 279 285 288 285 280 272 274 267 263 261 259 265 267 273 279 278 274 275 276 275 276 275 274 275 273 269 270 268 270 272 274 276 277 280 282 283 283 283 284 285 286 287 287 287 287 287 288
277 269 269 270 268 275 268 273 269 271 271 274 267 269 272 275 277 278 281 278 280 279 277 277 277 278 278 277 275 276 279 276 275 275 278 279 281 282 282 279 281 285 289 285 284 275 269 270 270 266 266 273 276 277 279 279 274 275 273 273 275 275 276 273 270 270 275 269 267 274 275 273 275 277 280 282 283 284 284 284 285 286 287 287 287 287 288 287
272 271 268 275 274 271 263 273 275 276 277 275 269 273 274 275 276 274 278 281 279 278 277 280 279 277 277 277 278 272 274 274 274 273 279 280 279 280 278 279 278 282 283 279 280 276 268 267 270 273 274 276 277 276 277 276 274 275 275 274 273 274 274 267 268 275 273 271 269 275 275 273 276 278 281 283 284 284 283 284 285 286 286 286 287 286 286 286
276 273 277 279 274 267 270 276 277 276 276 277 276 274 272 274 273 278 276 278 275 275 278 272 274 276 275 274 275 273 274 269 272 279 278 278 277 277 274 276 279 278 280 277 277 273 270 268 272 275 274 272 272 275 276 275 275 273 273 274 275 273 272 273 273 275 273 272 275 276 275 276 278 280 282 283 285 285 284 285 286 285 285 286 286 285 285 284
275 272 273 276 277 275 274 276 276 275 276 280 270 271 275 274 273 275 276 276 272 273 279 275 274 274 274 274 273 273 275 277 277 274 279 277 275 278 275 276 275 277 278 276 276 276 276 268 277 273 273 272 270 273 273 273 270 268 274 275 275 274 273 273 271 273 271 271 272 273 273 274 280 282 282 284 284 284 284 284 284 284 284 285 286 285 282 282
285 283 280 278 272 278 280 275 275 274 271 272 270 276 279 276 275 277 277 278 277 275 276 275 276 275 274 274 274 274 278 277 276 277 278 277 273 278 273 272 278 273 276 273 269 272 278 274 274 272 272 269 271 271 272 268 270 269 271 271 268 268 269 268 270 273 271 268 270 270 270 275 280 280 280 281 281 282 282 282 282 282 283 285 285 282 280 281
282 283 282 278 268 278 275 275 275 273 267 272 276 275 278 277 276 276 274 279 280 279 278 277 276 276 271 273 273 276 278 278 278 279 279 279 280 279 279 279 279 277 273 275 277 273 274 273 272 273 272 271 273 273 271 269 264 264 263 268 274 273 275 275 276 277 277 276 273 271 276 278 279 280 278 279 280 281 282 281 281 282 283 286 281 280 280 281
Wind_Speed
16 17 16 15 15 15 15 16 15 15 16 16 16 16 17 17 17 17 18 19 18 17 18 18 18 20 19 20 21 22 18 6 10 7 6 5 8 13 15 14 14 15 15 5 5 5 6 5 7 9 5 1 1 0 1 1 1 1 4 5 5 5 7 5 7 7 2 1 1 2 0 2 2 3 0 1 3 2 1 1 3 1 2 2 4 2 2 6
17 17 16 16 16 16 16 15 16 16 17 17 17 17 17 17 18 18 18 18 18 18 17 18 18 18 20 21 21 20 11 6 7 7 5 10 16 17 14 11 12 14 9 3 2 1 2 6 4 4 3 1 1 1 0 2 1 4 2 4 12 6 5 9 5 7 2 2 1 0 0 1 1 1 1 0 1 0 1 2 1 3 2 1 2 4 7 8
17 17 16 16 16 16 17 17 16 16 17 17 17 17 18 18 18 19 19 19 19 19 18 17 18 19 18 20 21 16 7 5 3 2 6 16 18 18 18 13 15 13 1 3 2 3 2 3 2 1 2 1 1 2 1 2 1 2 4 7 8 4 3 6 5 4 4 2 1 3 0 3 1 0 0 0 1 2 5 3 2 3 6 1 1 4 5 6
16 16 17 17 17 17 17 17 17 17 17 17 17 18 18 18 18 19 19 20 19 19 19 18 17 18 19 20 20 7 4 2 1 1 2 18 19 18 18 14 17 11 1 2 1 1 1 2 1 0 1 2 2 1 2 3 3 2 1 4 3 3 3 5 6 4 2 1 1 0 2 2 0 0 1 2 0 2 6 5 3 8 10 5 5 6 5 7
16 16 16 17 17 17 17 17 17 18 18 18 18 18 18 19 19 19 19 19 20 20 19 18 17 17 17 19 16 4 3 4 1 2 5 21 20 18 17 14 16 8 3 2 3 3 3 1 0 2 2 2 1 1 2 2 0 2 6 1 3 2 5 1 7 5 2 3 1 0 4 3 0 1 2 2 2 5 3 2 5 7 2 8 10 8 5 7
17 17 17 17 17 17 17 17 18 18 18 18 19 19 19 19 19 19 19 19 20 20 19 18 17 16 17 17 6 3 2 3 3 5 14 20 20 18 16 12 15 5 3 8 4 2 3 4 3 2 1 1 0 3 1 1 3 5 1 2 2 2 1 3 1 3 0 0 1 3 3 1 2 2 1 2 5 5 5 1 3 4 6 4 3 9 8 8
17 17 18 17 18 17 17 17 17 18 18 18 18 19 19 20 19 20 19 19 20 20 19 18 16 15 15 10 1 6 2 6 4 7 14 19 19 17 16 9 11 8 10 10 9 3 3 5 5 1 0 2 2 1 1 4 3 1 2 3 2 5 1 3 2 1 1 5 2 2 2 1 2 5 0 1 5 7 2 3 3 3 4 7 8 9 13 13
17 17 18 18 18 18 17 17 18 18 18 18 18 19 19 19 20 19 19 19 20 20 19 17 14 14 11 5 5 5 3 3 8 5 14 18 16 14 12 3 10 6 9 5 4 4 1 6 3 0 3 1 1 1 3 3 6 1 1 5 5 3 1 3 2 1 1 2 1 1 1 4 3 1 1 5 8 3 2 2 1 4 5 4 5 9 7 7
19 19 20 19 19 19 18 18 18 19 18 18 19 19 19 19 19 19 19 20 20 19 17 16 13 11 6 5 2 3 3 3 5 8 10 12 13 11 6 7 8 6 1 4 4 2 5 2 3 2 2 2 2 2 3 1 1 2 2 4 4 3 4 4 1 2 1 1 1 0 3 5 5 1 2 9 9 1 1 3 3 4 4 5 6 6 6 8
19 20 20 20 20 21 20 19 19 19 19 19 18 19 19 19 19 19 20 20 19 18 15 14 11 7 4 3 3 7 2 5 5 7 11 10 12 9 10 5 6 6 7 5 5 7 5 0 0 2 3 1 0 1 1 2 1 0 4 3 4 7 4 2 2 3 2 1 2 2 3 2 2 3 5 2 5 0 4 3 2 3 3 4 4 4 4 5
20 20 19 19 19 19 20 20 19 19 18 19 19 18 18 19 19 19 19 19 18 17 13 11 7 6 2 3 3 4 4 7 5 8 11 9 9 9 7 7 5 3 4 5 4 1 0 0 1 1 1 1 1 2 1 0 0 2 2 3 3 5 3 2 1 3 0 1 1 2 4 1 2 1 5 7 1 1 2 0 0 1 2 4 4 5 4 6
20 20 20 19 20 19 19 19 19 19 18 18 18 18 18 19 19 19 19 18 17 14 11 8 5 3 4 4 2 1 4 4 7 7 9 9 7 6 4 3 3 2 2 4 5 2 1 1 1 2 1 1 1 0 0 2 0 1 1 2 5 5 2 3 1 1 0 1 1 4 1 4 1 4 5 10 4 3 2 1 1 3 3 3 4 4 5 9
20 21 20 20 19 19 19 18 18 19 18 18 18 18 18 19 19 19 18 16 14 11 8 6 4 3 1 5 3 7 4 6 6 7 8 5 8 2 1 1 3 0 1 0 3 4 1 1 2 4 1 2 1 1 1 2 2 1 2 1 4 5 3 3 2 2 2 2 5 3 6 3 4 5 7 5 5 4 3 6 3 4 3 3 3 5 6 5
21 21 20 20 20 19 18 17 17 18 19 18 17 18 18 18 18 18 17 13 12 8 6 5 3 4 1 3 5 5 6 5 4 6 11 8 8 9 6 7 1 2 0 1 4 2 1 0 1 0 1 1 1 3 3 4 4 1 1 4 1 1 2 4 3 7 2 1 1 2 4 3 5 5 6 5 4 3 4 5 6 3 3 3 3 4 5 7
21 21 20 21 20 19 16 16 17 18 18 18 18 18 18 18 18 16 13 9 10 6 2 5 3 1 4 6 5 9 8 1 10 11 7 9 6 7 10 9 9 6 3 3 2 1 1 2 2 4 2 1 0 2 3 3 4 3 3 2 4 2 3 7 5 8 3 3 5 3 4 6 6 5 7 7 5 5 4 6 7 7 5 5 5 5 5 5
21 21 21 21 20 17 15 16 17 18 18 18 18 18 18 16 14 11 9 7 7 3 3 0 3 4 1 4 3 8 4 10 11 12 4 3 2 2 5 7 3 5 6 1 2 0 3 3 5 0 2 3 4 3 4 4 4 5 3 0 1 1 3 4 2 4 6 2 4 2 4 3 2 5 8 5 6 5 5 5 6 7 7 4 3 4 4 6
20 21 22 21 19 16 15 16 17 18 18 18 19 16 14 12 10 10 5 7 3 2 2 1 1 1 3 2 2 7 6 6 5 4 10 3 1 2 6 4 2 7 6 1 7 1 5 3 2 2 3 3 1 3 1 5 2 3 3 3 0 2 1 2 6 3 7 9 4 6 4 2 8 13 10 8 5 6 6 7 7 7 5 5 4 4 4 5
21 21 22 21 18 16 16 17 18 18 18 18 15 12 7 6 8 7 5 3 2 3 2 1 3 1 1 5 7 10 9 6 9 8 6 5 1 4 2 2 2 3 3 1 5 4 3 1 5 2 4 6 6 5 4 1 2 1 2 2 3 2 1 1 2 4 10 4 4 6 2 3 6 10 13 12 6 4 4 6 7 7 6 6 4 3 4 4
20 20 21 21 18 16 16 16 17 18 18 18 12 6 5 5 4 4 6 6 6 6 6 9 8 6 1 11 10 7 8 8 6 2 10 8 3 1 1 0 3 2 1 4 2 4 4 3 5 6 4 6 5 5 5 4 3 4 4 3 2 4 2 5 3 3 4 6 7 4 3 6 7 9 11 12 11 9 5 4 6 7 5 5 5 4 3 4
21 20 21 20 19 17 16 16 16 17 19 10 8 4 5 9 8 4 8 6 7 3 2 5 1 3 5 5 7 9 8 3 4 9 8 2 4 8 4 2 4 7 5 2 2 3 2 7 5 3 1 2 2 2 4 2 1 3 4 4 1 1 2 3 4 3 3 2 1 2 4 2 4 6 9 11 9 9 9 8 7 8 9 9 8 8 7 5
20 20 21 19 19 18 17 14 15 15 16 9 6 8 5 5 3 4 6 6 1 2 0 3 3 1 3 5 5 7 7 7 1 7 5 5 1 1 7 4 5 7 2 1 0 2 7 7 4 0 2 1 0 0 2 4 5 4 4 4 3 2 2 1 2 5 5 3 4 6 6 5 5 5 8 9 7 7 8 9 7 9 9 8 7 8 9 8
20 20 20 19 18 17 15 10 11 13 8 7 12 8 2 3 3 2 2 5 6 0 2 3 1 3 3 5 4 1 3 2 12 13 7 8 6 7 6 6 4 5 3 1 4 6 6 6 2 3 2 1 1 2 4 4 4 4 4 1 3 4 4 6 2 3 2 4 6 5 6 8 8 7 7 5 5 4 4 2 4 5 8 7 8 7 9 10
20 20 20 19 18 16 13 7 7 8 5 9 7 8 3 8 4 2 1 2 5 2 3 4 7 5 8 3 1 2 4 4 4 9 8 6 7 5 2 6 6 3 4 5 5 2 6 3 5 4 1 1 3 4 5 5 5 5 5 6 0 2 4 3 4 3 6 1 3 6 5 7 7 5 5 3 3 3 4 3 3 2 3 6 7 7 8 9
20 20 20 19 18 16 10 3 6 6 5 4 7 4 4 3 3 1 2 0 2 7 3 2 1 1 6 5 3 4 1 3 1 11 7 5 4 3 3 3 4 5 5 4 6 8 3 2 4 2 2 3 3 4 7 6 4 2 4 2 1 2 3 1 4 5 3 2 0 4 3 3 6 7 8 6 3 3 6 7 4 2 2 4 5 6 4 6
20 20 19 18 17 15 7 4 6 3 1 1 2 2 4 3 2 0 2 2 2 4 3 1 1 1 5 1 3 2 2 2 2 2 3 3 7 4 2 0 2 6 4 2 4 7 5 4 2 3 5 5 6 7 4 4 5 2 0 1 2 2 2 4 4 4 6 2 5 4 5 3 4 5 5 6 7 10 4 7 9 9 9 8 11 11 10 8
19 18 18 17 16 16 4 3 3 2 3 2 2 5 5 4 3 0 6 4 4 4 8 9 2 6 2 7 7 1 1 6 5 3 2 4 2 1 1 4 1 4 4 3 2 3 2 4 5 3 6 5 6 4 1 2 3 5 1 1 2 2 1 2 4 2 3 1 4 3 3 5 6 7 6 5 6 7 7 7 9 10 12 11 11 10 11 12
18 17 17 15 14 13 4 1 1 2 4 3 3 5 6 5 3 0 1 5 6 5 4 5 4 1 4 5 8 2 6 7 9 3 6 5 4 1 3 5 3 1 1 0 2 2 4 7 9 9 7 6 5 7 4 3 5 2 0 0 0 2 1 1 2 3 1 1 2 6 3 0 4 5 3 7 4 7 11 14 14 13 14 14 13 14 13 13
17 16 17 12 10 11 2 1 3 4 3 5 5 6 6 6 1 2 4 3 4 5 3 6 1 4 5 9 6 6 1 6 5 12 5 8 1 4 7 3 3 3 4 2 6 1 2 4 6 7 6 7 5 1 3 2 1 1 3 1 2 1 0 2 2 1 1 3 6 7 3 2 1 5 6 4 6 9 12 12 12 13 14 14 15 15 15 14
16 15 17 11 6 10 5 3 3 3 3 4 5 5 4 2 5 7 3 4 3 1 4 1 4 3 10 12 8 5 3 4 4 5 9 3 7 1 6 4 2 1 2 5 4 1 1 1 2 2 4 4 2 3 3 1 4 1 2 1 2 3 3 2 1 3 4 5 4 4 3 2 4 6 6 3 5 9 9 10 9 10 11 12 13 14 15 15
14 13 15 14 3 6 4 2 3 1 3 4 4 4 1 2 2 5 8 3 1 4 3 3 5 8 6 8 6 12 10 5 1 6 5 3 10 7 2 0 1 4 6 5 6 2 3 4 5 4 5 2 2 2 0 0 2 3 3 1 4 6 4 3 5 2 5 7 4 2 4 1 2 4 4 3 3 3 7 8 9 10 12 14 13 14 14 14
12 10 11 9 5 2 1 4 6 3 4 3 2 2 2 9 6 5 3 3 1 3 4 5 5 6 9 10 7 10 5 6 10 9 10 8 12 12 10 3 5 3 7 7 6 8 6 5 3 2 2 3 0 2 2 1 1 1 2 2 4 3 6 6 5 5 5 3 5 1 3 1 2 3 3 3 1 5 6 7 9 11 11 13 13 13 13 12
11 8 7 6 0 1 6 6 10 8 5 4 2 5 4 2 8 7 1 4 1 7 2 6 4 3 9 2 5 10 6 8 5 7 8 7 10 15 12 9 6 7 8 7 7 5 8 6 2 5 3 11 5 4 6 7 8 8 2 7 4 2 5 2 7 4 1 2 1 5 4 3 2 5 6 6 7 7 5 3 5 6 11 13 13 13 12 11
11 5 5 2 2 2 1 4 7 7 5 1 4 5 9 7 3 3 3 5 0 1 5 0 5 7 7 3 10 8 2 8 8 8 4 4 8 7 6 11 7 3 3 6 4 8 3 2 10 11 4 6 5 5 5 6 8 7 5 2 5 3 4 1 2 1 3 5 5 2 3 1 3 3 2 0 3 3 4 4 4 5 10 12 12 11 12 12
10 3 4 3 1 1 3 4 5 5 4 3 7 10 10 10 1 2 1 2 3 3 3 3 8 6 5 7 5 5 6 1 8 5 7 4 11 11 12 13 15 11 4 4 6 4 6 7 9 8 6 6 5 3 1 1 2 2 1 2 3 6 5 1 2 1 2 3 5 4 4 3 4 2 2 1 1 2 3 4 5 6 9 10 9 12 17 18
9 2 3 3 2 2 4 5 6 2 3 8 12 8 9 2 2 2 2 4 3 3 3 3 4 5 6 5 3 4 1 2 6 4 9 12 9 6 8 10 12 6 3 3 5 3 1 2 5 2 4 3 5 4 0 0 1 1 1 3 5 1 0 2 3 3 0 2 4 2 3 2 2 1 1 3 4 10 8 13 14 17 15 15 15 16 15 16
5 3 1 2 4 7 8 6 4 2 6 9 11 10 5 3 1 2 1 1 1 3 9 5 2 6 3 5 2 9 4 2 9 5 5 5 6 9 6 3 8 9 7 5 3 5 4 6 3 8 3 5 7 4 3 0 1 3 4 2 1 1 2 1 2 2 1 3 4 1 6 5 6 3 4 5 12 15 16 16 15 14 15 15 15 16 15 15
2 5 3 5 5 9 9 7 3 6 9 9 10 4 2 1 4 3 3 2 2 3 3 6 6 4 5 5 4 9 9 3 6 4 6 2 4 9 5 4 3 8 3 0 1 1 3 7 3 6 12 3 2 0 2 5 0 2 5 3 1 1 4 2 1 2 4 2 4 3 3 5 5 2 4 14 17 19 21 20 18 18 19 19 15 15 15 15
2 2 1 3 5 8 7 6 3 8 6 11 9 8 2 1 0 1 2 2 1 2 4 3 1 4 2 2 7 8 11 7 10 5 0 6 1 3 4 4 7 7 6 2 2 3 0 2 4 0 2 7 5 1 4 6 7 7 2 1 1 1 4 3 2 3 2 3 3 6 1 2 1 4 8 13 15 16 18 20 21 20 18 17 17 18 18 18
2 2 2 4 6 7 7 3 10 8 8 12 1 5 2 3 3 2 2 0 1 0 3 1 0 1 0 2 2 2 5 5 5 3 3 3 3 2 6 3 6 13 7 4 4 2 3 2 5 3 3 4 4 5 4 7 8 2 0 6 1 4 1 2 1 1 5 2 5 6 5 3 2 1 5 12 12 11 14 17 17 18 15 14 14 15 17 17
4 2 3 3 7 8 7 3 9 9 9 9 3 1 1 1 3 6 4 2 1 1 0 1 0 2 3 0 1 2 3 4 3 3 3 3 1 1 7 5 4 11 8 3 2 1 1 1 2 8 9 2 5 4 2 3 7 9 10 7 6 2 1 2 2 3 2 1 2 0 5 6 6 2 9 10 9 11 12 11 13 15 16 13 11 13 15 15
1 3 2 4 11 8 3 14 13 8 7 1 2 2 0 1 2 1 2 2 0 1 2 1 0 2 1 3 3 0 2 3 4 2 1 2 3 3 2 5 6 8 5 3 6 3 2 3 1 4 8 6 1 0 1 1 2 4 3 5 3 8 8 4 1 4 3 3 1 2 7 5 6 4 8 8 10 12 10 9 10 12 15 15 12 11 12 14
2 1 3 5 10 6 8 9 4 1 5 3 1 2 1 2 1 3 2 2 2 1 2 2 1 2 2 1 1 3 1 2 2 2 1 3 3 2 4 4 8 4 1 3 2 2 2 2 3 2 0 2 4 6 1 2 0 7 5 4 3 3 4 4 1 4 3 1 0 2 1 7 4 5 9 9 8 8 9 7 9 9 12 14 15 11 8 9
4 1 4 4 7 3 10 6 3 5 4 2 3 2 2 1 1 1 2 3 1 1 1 3 1 1 0 1 1 1 1 1 0 1 1 2 3 1 6 10 9 8 1 4 2 1 5 4 5 3 6 5 2 3 2 4 1 5 4 3 5 5 1 2 4 1 1 3 2 3 0 5 2 4 9 9 6 6 7 6 8 9 8 11 15 15 14 12
1 1 4 3 7 3 8 2 2 1 1 3 2 0 2 0 1 3 2 2 1 2 1 1 1 1 1 0 1 2 1 1 1 2 3 0 4 0 6 13 7 5 4 2 2 2 1 2 4 2 5 6 5 5 1 2 5 3 2 2 2 1 2 1 1 1 0 4 6 3 5 4 5 6 10 10 11 11 10 9 7 9 8 9 12 12 13 14
2 1 1 7 10 8 4 3 7 5 0 2 2 4 6 1 1 0 0 2 1 1 1 1 0 1 1 0 1 0 1 3 1 1 0 1 4 2 7 13 7 3 1 4 4 2 2 0 3 4 3 3 3 4 5 8 8 3 0 4 4 1 2 4 1 2 0 1 6 2 6 8 4 8 9 13 11 11 10 9 8 6 6 9 10 10 13 14
1 1 5 6 8 7 6 1 5 7 5 2 3 1 1 1 1 2 3 1 1 0 2 1 1 0 3 2 3 3 2 2 1 2 2 4 3 1 4 12 7 2 5 10 9 5 2 1 1 4 5 4 5 4 4 3 4 5 9 6 4 0 0 1 1 2 2 1 3 8 9 14 14 8 12 14 12 12 14 13 12 11 11 9 7 6 9 12
1 3 1 1 3 7 2 2 2 2 2 2 2 1 4 1 1 2 1 1 2 1 1 3 2 2 2 3 1 1 1 5 1 0 3 5 1 3 12 6 6 5 8 4 7 4 3 3 1 3 5 3 2 4 5 4 4 6 5 6 4 3 3 1 2 4 2 1 7 4 6 4 8 8 10 13 12 10 10 10 11 11 11 10 9 6 9 13
2 1 2 0 2 1 2 3 2 4 3 1 1 0 1 1 3 0 4 1 1 2 1 1 5 2 2 0 2 0 2 3 2 0 3 0 5 8 9 4 1 5 4 2 3 3 3 1 3 2 3 3 6 7 5 4 3 5 6 7 8 6 2 4 5 8 4 4 9 9 7 8 10 6 9 10 12 10 10 10 9 11 11 9 9 8 9 13
3 2 1 1 1 1 1 0 3 7 5 2 1 1 1 1 1 0 1 3 3 2 2 0 2 5 4 4 1 1 1 3 2 1 3 3 5 7 3 5 1 4 5 5 5 2 3 1 2 1 7 5 6 7 6 4 3 3 5 8 8 5 7 6 9 8 6 9 12 11 11 13 11 6 7 12 12 8 8 7 9 14 16 11 9 7 11 14
1 2 0 3 6 3 2 1 2 3 4 3 2 1 2 1 0 3 1 1 1 1 0 1 2 3 3 1 1 1 2 2 3 4 1 6 6 1 2 4 5 4 7 5 2 5 2 2 2 2 3 4 4 3 3 3 2 5 8 9 8 4 5 5 3 4 5 7 9 10 9 11 3 1 7 9 10 8 7 10 13 14 15 13 10 11 14 15
1 0 2 7 4 1 1 2 2 3 2 3 4 1 2 2 0 0 2 1 2 1 0 1 1 3 0 1 1 2 2 0 3 7 6 4 6 1 2 4 1 6 5 3 2 4 2 2 1 0 3 1 2 3 5 4 5 6 10 9 7 1 1 1 2 4 4 5 4 2 3 3 5 8 4 5 8 10 9 11 14 16 15 11 11 15 17 19
1 1 2 4 3 2 0 0 1 2 1 2 2 1 1 0 0 1 1 1 0 1 3 0 1 0 2 0 4 5 1 3 7 9 8 8 8 7 6 6 4 5 3 1 0 1 1 0 2 2 4 2 2 3 5 7 3 2 2 2 2 5 3 2 5 3 6 3 3 3 3 4 7 6 6 6 8 10 11 10 14 17 13 9 12 15 19 21
Wind_Direction
12 10 8 6 5 2 359 358 357 356 354 353 352 352 351 351 349 347 343 340 337 338 338 337 339 338 334 337 336 333 341 347 327 333 342 247 268 272 283 299 305 305 316 330 317 11 334 350 353 344 22 77 245 141 245 176 160 129 194 158 209 193 179 191 182 183 210 117 230 20 7 69 16 351 328 45 32 65 359 173 305 301 251 221 260 300 156 137
8 6 2 360 359 358 355 356 355 354 351 350 351 351 351 352 350 347 347 343 339 338 338 337 338 339 338 334 338 336 344 329 312 303 237 299 346 360 352 326 323 329 341 335 276 336 346 326 331 359 40 43 350 222 77 217 135 193 146 162 224 166 226 156 188 202 128 237 189 218 85 19 341 184 304 69 309 15 118 292 17 316 302 7 17 113 127 145
3 0 356 355 356 354 352 353 350 349 348 348 348 348 349 349 348 346 345 343 341 340 338 337 337 338 338 338 334 345 351 314 322 29 341 345 356 355 354 351 341 340 25 256 250 181 208 265 258 5 8 89 312 216 352 264 105 237 134 210 222 202 212 206 163 203 200 131 269 356 125 47 308 133 279 41 275 8 202 214 317 278 247 236 99 128 143 150
357 355 353 351 351 350 349 347 346 344 344 344 343 344 344 344 343 344 343 341 339 339 337 337 337 337 338 339 339 343 4 350 55 15 289 351 353 351 351 348 346 344 8 163 195 144 148 75 79 141 83 83 294 64 161 233 127 262 112 219 224 210 191 220 197 221 201 61 313 282 303 28 296 216 98 178 91 272 264 246 208 216 223 181 177 161 159 161
355 353 351 349 347 346 345 343 341 342 340 339 340 340 339 339 340 340 341 339 337 336 336 335 337 337 340 337 347 24 352 25 130 314 323 346 349 346 344 351 349 341 30 103 90 38 79 104 92 28 78 178 359 81 256 298 225 131 223 102 201 204 223 98 196 220 229 112 272 233 344 280 234 64 88 135 264 248 217 240 225 252 305 159 172 184 167 173
356 354 352 348 345 343 340 339 337 337 338 337 337 337 336 336 336 338 339 337 335 333 333 336 334 338 341 341 15 35 50 130 344 324 334 341 342 340 338 351 348 356 16 52 57 10 48 352 62 16 8 85 359 146 259 333 352 251 276 323 290 292 247 347 39 339 120 246 189 309 275 8 68 280 222 174 210 239 210 212 255 247 188 187 156 154 175 180
355 353 351 349 345 341 338 335 334 333 334 334 334 333 333 334 333 338 337 335 331 331 330 334 332 340 346 346 48 73 82 272 341 296 324 336 333 335 333 344 354 17 32 34 17 51 8 43 68 347 58 82 31 119 294 320 331 181 260 349 357 12 251 346 343 330 95 110 230 202 10 321 352 309 106 193 248 249 333 266 252 242 138 141 153 186 182 188
354 351 349 348 346 342 338 336 332 333 331 331 332 331 330 331 333 335 334 333 329 327 330 332 331 348 359 25 21 344 54 292 289 294 325 331 331 331 325 332 12 12 43 50 6 22 43 44 33 3 48 114 200 84 317 14 28 45 294 359 304 337 356 319 303 24 163 232 257 71 269 253 184 213 30 265 256 281 312 4 52 107 123 141 168 187 200 201
355 352 351 347 343 341 339 336 334 331 331 330 329 329 328 328 332 333 330 329 327 326 329 330 337 1 63 81 86 1 341 261 242 296 317 331 323 327 355 10 337 35 49 35 13 40 92 332 26 58 262 38 276 33 354 90 312 71 263 322 302 307 327 308 307 60 38 283 124 295 262 282 258 354 272 250 270 277 346 42 65 98 124 173 195 198 196 203
351 349 349 349 345 341 338 336 334 332 330 328 329 328 328 327 331 332 327 327 326 325 327 328 346 24 39 46 23 41 288 272 281 305 322 327 323 330 12 6 356 19 20 355 14 31 61 263 144 288 148 57 300 13 245 74 233 79 277 258 289 283 334 338 64 303 319 235 171 195 283 269 8 101 277 294 256 169 48 51 57 113 162 196 203 208 222 219
350 349 347 347 346 344 340 336 334 330 329 328 327 329 325 327 330 327 324 324 324 324 325 336 5 39 48 70 74 9 257 3 325 328 323 330 326 358 341 336 344 24 24 357 25 1 159 252 199 227 107 237 74 308 58 151 319 267 228 305 314 311 231 247 203 274 333 323 155 183 251 284 293 100 226 262 270 89 28 42 147 163 186 204 211 210 215 233
349 349 347 346 344 343 342 336 333 330 330 327 327 327 327 326 328 323 323 323 324 323 324 350 50 94 81 78 161 249 286 289 318 316 324 336 332 312 276 281 316 348 45 0 332 336 256 280 83 60 343 294 343 75 15 234 134 291 55 3 306 351 11 1 53 355 337 284 143 158 350 294 108 201 242 244 302 326 320 289 261 232 231 223 221 220 214 229
350 349 348 346 343 343 342 338 332 332 330 329 328 328 326 326 323 320 323 323 322 332 336 15 61 79 58 10 241 239 292 309 312 322 323 345 323 309 247 242 317 213 216 312 312 307 346 183 82 30 272 72 282 121 262 52 302 106 50 116 359 355 354 348 285 2 126 236 146 136 258 212 248 240 257 283 16 353 312 292 249 252 259 248 227 224 238 243
351 350 347 345 342 343 342 337 333 332 331 330 327 326 324 322 319 322 322 324 328 339 33 50 81 62 82 239 276 274 289 310 330 337 353 330 7 323 341 350 55 69 30 278 267 269 343 159 121 145 134 64 322 302 17 334 13 110 268 63 52 20 279 324 7 309 131 330 129 122 235 282 286 289 275 331 17 23 321 302 306 286 281 272 250 241 240 247
353 350 348 347 345 346 343 337 332 333 331 329 326 325 324 320 321 324 322 332 348 35 74 66 56 66 35 285 251 292 302 355 358 342 339 353 348 336 349 334 340 338 292 218 272 333 84 104 55 37 306 300 317 29 341 11 359 5 67 312 345 125 276 318 22 20 40 343 18 140 278 254 254 268 338 340 27 43 353 317 320 329 331 330 324 315 305 295
354 352 351 350 350 348 342 339 337 336 331 329 325 325 320 325 328 325 332 7 7 11 18 52 352 90 109 18 308 340 34 2 330 312 303 344 334 296 296 290 298 336 18 14 338 337 19 77 70 185 328 6 40 85 24 22 348 350 91 72 313 42 251 341 46 21 21 291 7 69 259 333 322 316 313 318 336 15 357 325 319 319 319 329 310 301 300 300
357 355 354 354 355 351 344 342 342 338 331 326 326 320 324 332 342 328 353 38 348 336 62 315 18 60 68 242 276 12 346 307 317 323 331 328 304 273 326 6 355 337 347 20 11 47 349 57 308 26 33 87 162 83 74 17 340 332 11 113 200 77 324 182 319 25 21 46 324 23 35 278 290 313 322 333 21 352 346 325 317 314 309 306 313 302 300 301
358 357 357 357 358 353 351 348 346 342 332 328 330 321 319 346 12 359 351 22 338 71 75 141 118 52 306 355 9 317 305 299 324 309 284 297 83 353 27 354 315 359 33 33 359 52 332 39 26 166 13 3 28 29 101 230 213 33 12 57 7 347 69 279 28 309 12 33 24 331 11 295 306 317 322 318 346 16 1 331 308 304 303 300 300 292 279 285
356 357 359 356 358 356 353 353 352 348 343 331 336 333 22 30 24 77 54 342 25 4 27 346 14 53 269 303 308 286 309 290 282 6 331 354 332 4 39 51 51 35 43 65 309 56 351 48 30 37 24 4 14 45 122 122 128 89 73 100 87 81 314 341 262 300 43 340 341 8 311 322 324 319 315 322 335 351 337 316 316 313 308 309 313 308 286 262
353 355 358 356 355 356 354 356 359 359 356 348 4 13 14 18 359 339 350 22 53 83 160 265 125 242 288 308 311 293 267 30 14 338 341 333 345 347 17 56 7 54 61 70 302 38 78 77 74 98 24 285 313 81 105 183 78 84 68 88 67 127 302 277 298 249 328 357 253 279 305 276 290 285 292 301 328 334 340 355 340 327 328 331 334 332 324 313
351 352 355 356 351 353 352 1 9 14 16 22 9 56 51 344 20 347 329 304 241 177 352 303 199 202 269 292 295 345 3 320 68 340 338 288 110 52 344 22 21 47 357 278 79 314 74 70 26 231 280 234 209 151 90 75 51 85 87 63 18 19 355 252 288 348 348 75 295 314 330 318 284 282 284 309 341 325 338 345 345 335 325 329 340 334 331 309
348 350 351 352 351 350 350 12 19 20 30 49 44 56 63 39 333 289 44 348 329 265 255 265 182 324 287 240 244 180 125 326 350 355 331 27 345 52 328 64 46 51 331 3 14 26 53 77 309 276 280 99 58 52 63 91 88 49 86 124 57 335 250 294 290 339 312 33 281 324 346 308 304 293 294 282 297 309 341 324 283 301 320 330 336 337 330 336
346 347 349 348 348 348 351 13 40 31 17 34 43 41 33 319 317 283 145 317 286 283 3 3 353 344 340 318 316 119 23 21 335 340 343 356 359 68 335 33 26 24 26 48 104 49 54 357 323 312 140 53 30 36 75 68 68 85 41 51 338 245 36 306 299 355 335 96 297 308 316 305 328 318 305 311 7 285 293 305 294 261 301 317 321 326 323 327
346 344 347 347 344 346 351 47 45 45 31 83 65 40 294 289 310 103 62 137 287 312 19 294 341 296 339 348 342 22 49 322 26 339 343 18 23 311 59 26 24 35 29 23 96 96 115 307 309 9 86 106 75 37 63 68 49 6 90 107 15 335 282 159 290 335 318 15 358 329 3 344 7 4 347 325 301 315 353 341 4 16 294 289 297 333 340 324
346 345 349 346 342 344 347 57 34 346 259 37 35 332 338 349 339 235 99 350 16 322 334 315 82 347 310 251 329 344 305 241 346 257 284 29 340 31 334 200 83 13 10 15 70 70 30 347 342 45 44 54 75 48 37 112 51 18 17 143 262 247 260 286 307 8 22 346 351 47 14 335 314 338 337 318 349 353 351 7 357 349 360 2 1 353 351 353
347 351 352 350 345 343 347 57 324 336 56 62 262 330 333 334 356 138 92 81 26 308 344 22 355 356 6 337 343 26 24 22 347 315 296 323 204 79 18 17 58 18 347 34 72 111 46 340 44 75 80 61 73 82 355 100 109 81 304 164 278 237 193 285 329 68 9 50 320 55 121 265 339 346 325 338 332 332 345 22 357 358 357 358 355 356 355 353
353 354 355 357 359 359 65 300 295 51 35 314 296 327 331 321 303 85 32 7 45 347 353 286 2 341 3 328 332 346 46 310 322 345 10 351 23 321 92 338 6 11 76 296 43 358 18 358 23 27 45 60 52 52 4 90 90 85 217 187 98 80 35 340 91 118 203 250 325 37 86 217 344 312 306 318 339 353 6 359 356 355 356 356 357 360 1 359
358 358 357 8 31 34 158 110 23 34 192 254 314 325 322 311 269 53 79 61 355 338 358 324 359 306 29 320 355 52 172 280 20 351 13 312 27 353 75 27 75 358 325 60 86 305 65 358 34 17 34 46 45 296 320 18 70 189 317 315 330 318 268 114 78 149 196 76 322 344 343 54 300 273 317 349 33 10 2 352 348 351 354 356 357 0 0 1
360 1 358 7 64 58 61 91 118 16 259 285 307 317 310 31 77 92 109 94 260 33 220 19 287 16 340 341 30 26 330 9 55 308 320 328 28 179 30 5 98 63 17 62 92 337 42 84 352 94 70 19 293 284 270 16 25 292 305 30 64 64 61 58 89 56 349 69 312 349 10 88 307 285 335 345 62 15 347 338 343 352 354 355 357 356 360 1
358 7 2 357 20 19 1 13 57 276 270 302 313 307 26 50 37 36 16 42 310 340 358 262 28 310 346 356 348 6 11 354 149 307 358 49 350 30 67 95 102 42 26 5 65 26 259 299 252 48 5 306 287 291 164 173 234 263 17 30 2 42 23 16 53 42 58 30 263 320 354 110 318 274 231 61 71 25 339 342 352 354 357 359 359 359 360 358
353 3 12 6 60 288 331 10 302 323 318 310 310 60 73 37 90 112 69 245 6 261 338 10 338 352 4 25 359 339 357 351 350 5 6 4 24 43 26 17 25 53 40 10 34 352 30 11 35 332 295 316 113 344 18 62 307 69 51 46 30 358 13 31 352 37 78 287 275 307 303 101 105 290 291 232 329 39 17 350 344 349 356 357 357 356 355 355
348 355 11 37 34 46 49 303 298 315 320 310 48 60 69 33 15 70 182 333 55 320 26 312 328 356 338 333 35 351 346 334 4 15 17 5 30 37 19 47 339 15 16 12 356 355 41 34 303 326 295 26 1 50 346 2 19 32 41 39 88 301 35 348 9 11 117 187 281 339 355 45 246 228 262 321 17 1 358 0 338 343 359 359 356 353 349 351
340 357 346 87 12 29 216 254 292 300 319 68 73 55 60 92 55 286 300 334 229 298 302 21 280 341 305 336 12 341 309 42 323 17 354 16 49 45 48 45 357 64 79 339 11 14 312 261 22 349 8 15 32 70 342 12 351 14 49 81 74 54 53 1 289 231 330 299 273 325 330 169 243 302 283 318 333 327 326 360 4 9 9 358 353 349 348 351
335 20 12 302 254 213 278 296 286 315 360 53 65 45 60 59 198 6 336 264 279 339 291 346 314 338 23 51 333 341 359 306 25 340 9 2 31 17 5 20 19 9 71 355 45 344 51 355 1 9 15 344 34 87 227 205 318 324 143 100 160 136 151 189 202 116 215 219 295 309 61 250 69 216 127 172 301 274 346 4 20 30 11 360 349 356 359 357
320 69 353 331 353 257 323 308 316 316 80 66 59 77 88 185 228 282 299 301 291 279 309 348 354 7 348 10 322 353 85 305 15 3 24 32 17 16 5 355 5 19 331 69 3 75 250 226 283 308 262 340 11 310 274 35 31 286 149 90 54 322 177 133 208 138 101 321 344 340 210 196 200 128 1 37 355 12 24 25 16 8 3 360 360 2 356 352
352 309 30 335 355 329 344 336 329 64 86 64 79 48 75 181 75 204 299 261 301 354 309 346 36 31 329 337 305 4 325 82 343 44 9 43 34 28 335 342 14 9 15 51 311 11 6 28 306 328 29 48 3 338 2 258 98 308 50 17 309 174 124 52 45 341 19 47 263 194 339 311 300 14 6 11 14 7 15 10 13 6 358 359 1 356 352 347
12 343 23 317 340 338 333 340 11 72 66 93 85 63 189 302 222 181 310 24 289 303 357 55 342 41 351 325 307 347 335 36 360 62 7 356 16 13 354 321 33 14 31 26 50 47 352 271 315 38 358 324 41 225 326 30 35 52 51 328 342 359 113 116 110 5 58 114 265 49 260 316 31 308 330 14 14 11 2 2 359 0 2 1 354 351 348 344
32 39 237 335 318 326 333 347 78 41 71 72 65 117 263 135 11 237 254 344 348 18 60 65 275 55 340 14 340 350 329 68 339 48 352 351 111 324 20 348 331 17 345 316 86 320 106 3 301 124 266 287 341 37 357 356 39 80 100 261 83 29 31 342 80 5 37 340 294 324 277 284 137 288 12 360 19 11 2 357 354 356 355 351 347 346 347 346
52 72 10 301 335 346 332 342 61 55 72 68 6 93 255 266 272 225 233 284 218 61 73 291 58 353 99 28 263 296 347 31 324 25 60 348 62 346 47 336 334 339 352 12 52 313 20 97 306 288 358 298 6 50 30 320 331 1 293 26 355 103 128 35 195 153 94 250 43 303 51 272 218 233 34 12 33 12 9 359 345 342 346 351 347 347 346 347
21 36 312 278 331 349 327 37 59 43 51 92 195 118 198 188 265 267 261 179 7 68 350 46 342 21 5 292 67 356 322 38 11 328 91 320 97 354 29 5 357 325 341 4 111 275 330 54 24 298 328 43 29 7 89 346 359 357 27 15 10 353 267 109 18 100 137 114 154 296 335 281 278 198 37 38 23 19 9 351 340 335 338 344 353 350 345 346
58 100 274 306 344 334 38 42 45 27 77 277 30 141 68 189 325 278 289 284 126 340 101 127 86 59 252 355 353 45 345 0 12 22 46 332 42 343 46 23 330 335 337 9 43 354 59 14 83 318 4 23 186 54 344 235 28 78 63 47 337 27 13 55 287 8 26 82 250 90 265 278 299 49 69 56 22 9 353 350 338 336 333 337 348 356 353 346
74 44 293 326 349 7 74 51 25 159 95 90 79 177 8 230 50 335 353 346 70 27 350 99 40 95 14 2 237 334 46 1 323 54 316 69 326 101 316 345 346 298 19 16 307 293 118 108 86 354 186 291 292 313 314 234 238 75 64 43 83 100 105 88 45 295 10 278 151 181 219 283 246 74 64 53 21 359 343 344 343 336 333 335 339 348 357 351
51 178 257 329 352 61 64 58 344 48 50 241 290 296 277 349 126 272 37 349 31 63 19 50 333 39 49 1 335 5 126 356 108 359 265 313 284 356 283 349 350 353 91 344 33 315 75 50 23 305 308 302 317 341 36 39 76 23 19 54 43 18 69 171 185 208 165 303 20 349 78 246 302 54 50 33 10 345 336 347 345 339 334 338 338 339 349 353
155 291 328 304 7 89 73 115 91 342 322 314 32 316 317 234 42 7 15 329 51 2 96 41 348 84 351 318 293 17 304 35 254 357 345 252 339 233 346 360 6 357 22 330 32 270 37 303 111 9 358 338 343 348 10 332 52 71 337 358 64 29 345 269 83 195 13 217 190 124 254 257 258 33 24 6 0 352 346 348 350 340 340 341 337 335 340 344
101 322 244 305 1 47 108 180 129 144 33 62 25 27 349 359 205 191 117 8 342 125 88 2 309 267 310 260 23 192 315 79 293 289 218 243 296 344 347 351 358 5 18 327 339 302 89 225 91 94 100 52 333 321 318 342 1 344 342 343 339 346 357 30 33 347 108 313 83 158 252 260 308 30 2 356 349 341 344 345 343 336 337 341 335 332 339 343
42 113 310 350 14 40 75 71 107 133 124 160 55 279 123 30 354 337 144 41 142 39 51 189 337 357 5 26 5 5 339 354 92 303 23 317 318 329 11 332 339 305 306 32 17 47 123 109 102 150 147 181 209 222 238 313 320 318 304 308 308 343 100 128 195 211 223 327 288 242 244 289 307 356 1 345 340 339 339 344 344 343 340 340 333 325 338 343
159 77 10 349 336 45 36 0 50 54 144 171 105 188 47 58 255 342 167 62 5 72 24 44 357 36 319 44 345 320 280 339 335 28 341 326 308 304 327 279 311 358 3 41 358 79 54 37 351 150 189 212 260 282 290 303 280 273 290 297 286 269 264 172 163 225 146 29 282 250 226 258 302 345 354 331 327 336 332 338 337 337 335 334 334 328 341 349
69 239 107 194 122 282 36 358 51 78 43 67 162 107 129 79 33 67 333 74 303 14 101 314 45 36 24 69 297 326 337 325 288 277 334 10 355 338 324 343 22 335 20 21 346 82 129 124 264 155 291 281 270 266 277 291 248 245 265 270 283 276 215 197 230 227 206 207 237 271 294 306 299 337 334 319 327 325 326 330 332 323 320 333 339 341 350 350
112 162 165 301 94 260 140 229 83 105 81 80 117 96 96 125 110 120 155 327 23 342 43 304 328 345 339 345 66 283 319 7 331 318 325 329 349 326 322 336 359 26 39 32 16 127 88 301 207 85 320 303 282 269 273 256 270 282 270 269 263 267 259 228 248 242 198 228 242 264 292 289 294 311 329 324 313 314 320 325 332 339 333 332 336 344 352 348
240 114 291 10 88 104 265 326 96 61 73 345 63 289 135 85 97 332 352 121 326 295 359 96 287 312 304 335 106 200 255 198 249 284 11 340 318 269 267 221 277 342 25 3 354 304 52 299 28 306 286 300 287 289 306 248 230 293 288 287 290 275 263 255 234 256 211 267 268 267 272 279 281 1 329 310 305 311 330 350 349 335 327 335 338 349 349 346
124 101 147 113 56 316 355 17 52 96 69 338 80 315 66 11 92 235 263 236 208 209 57 161 263 302 248 136 186 253 227 252 266 239 270 276 274 199 51 282 81 319 349 349 30 312 40 268 318 288 319 295 289 290 282 315 289 268 286 298 302 328 294 259 203 216 157 231 250 243 274 285 341 330 320 307 308 324 346 354 345 331 327 334 350 346 345 345
67 24 81 106 100 303 69 23 51 70 30 232 138 255 82 253 316 245 356 201 347 140 153 84 254 170 282 296 266 237 249 270 259 260 251 245 241 257 234 260 311 278 307 288 126 335 202 358 334 330 306 244 250 275 306 318 349 6 282 246 238 235 225 249 271 239 219 223 284 285 275 5 317 317 323 330 335 334 346 352 337 320 327 339 346 341 344 343